DLH83J EDDH-EDDN

Flight info

Callsign DLH83J
Flight time N/A
Altitude 37000
Route AMLUH2G AMLUH M852 DENIX DCT ZUCKA DCT GALMA M736 TABAT Q244 NIBIL/N0419F230 Q244 PIVIR PIVIR1V
Aircraft A320/M-SDE3FGHIRWY/LB1

Departure

Time 2026-05-05 16:59
Airport Hamburg Helmut Schmidt Airport (EDDH)

Arrival

Time N/A
Airport Nuremberg Airport (EDDN)
Time Latitude Longitude Altitude Speed Heading
2026-05-05 16:26 53.63265 10.00063 49 ft 0 kts 321°
2026-05-05 16:51 53.63261 10.00068 48 ft 4 kts 322°
2026-05-05 16:51 53.63239 10.00092 48 ft 4 kts 341°
2026-05-05 16:52 53.63215 10.00097 48 ft 4 kts 26°
2026-05-05 16:52 53.63206 10.00087 48 ft 0 kts 49°
2026-05-05 16:55 53.63215 10.00113 48 ft 11 kts 67°
2026-05-05 16:55 53.63144 10.00189 48 ft 14 kts 179°
2026-05-05 16:55 53.63055 10.00169 47 ft 12 kts 211°
2026-05-05 16:56 53.62987 10.00095 48 ft 11 kts 212°
2026-05-05 16:56 53.62930 10.00021 48 ft 10 kts 230°
2026-05-05 16:56 53.62902 9.99931 47 ft 3 kts 243°
2026-05-05 16:56 53.62900 9.99924 48 ft 0 kts 243°
2026-05-05 16:57 53.62898 9.99917 48 ft 0 kts 243°
2026-05-05 16:57 53.62893 9.99903 47 ft 7 kts 243°
2026-05-05 16:57 53.62866 9.99804 45 ft 12 kts 255°
2026-05-05 16:58 53.62888 9.99726 45 ft 0 kts 327°
2026-05-05 16:58 53.62891 9.99724 45 ft 3 kts 328°
2026-05-05 16:58 53.63107 9.99542 45 ft 73 kts 333°
2026-05-05 16:58 53.63731 9.99026 48 ft 132 kts 331°
2026-05-05 16:59 53.64689 9.98210 56 ft 177 kts 333°
2026-05-05 16:59 53.65851 9.97186 631 ft 180 kts 335°
2026-05-05 16:59 53.66976 9.96188 1314 ft 186 kts 333°
2026-05-05 16:59 53.68164 9.95152 1785 ft 202 kts 339°
2026-05-05 17:00 53.69565 9.94652 2347 ft 210 kts
2026-05-05 17:00 53.71024 9.94695 3315 ft 208 kts
2026-05-05 17:00 53.72439 9.95150 4115 ft 212 kts 26°
2026-05-05 17:00 53.73527 9.96849 4808 ft 223 kts 60°
2026-05-05 17:01 53.73966 9.99345 4982 ft 231 kts 79°
2026-05-05 17:01 53.74040 10.02194 5012 ft 257 kts 95°
2026-05-05 17:01 53.73607 10.05201 5005 ft 269 kts 111°
2026-05-05 17:01 53.72730 10.08008 5011 ft 272 kts 120°
2026-05-05 17:02 53.71773 10.10824 5630 ft 278 kts 120°
2026-05-05 17:02 53.70816 10.13679 6618 ft 281 kts 120°
2026-05-05 17:02 53.69846 10.16565 7495 ft 283 kts 123°
2026-05-05 17:02 53.68629 10.19111 7951 ft 283 kts 140°
2026-05-05 17:03 53.66989 10.20988 8763 ft 286 kts 157°
2026-05-05 17:03 53.65098 10.22093 9597 ft 292 kts 167°
2026-05-05 17:03 53.63053 10.23034 9858 ft 316 kts 167°
2026-05-05 17:03 53.60972 10.23987 9910 ft 301 kts 167°
2026-05-05 17:04 53.58987 10.24901 9916 ft 293 kts 167°
2026-05-05 17:04 53.57028 10.25800 9917 ft 291 kts 167°
2026-05-05 17:04 53.55069 10.26696 9909 ft 290 kts 167°
2026-05-05 17:04 53.53121 10.27587 9915 ft 289 kts 167°
2026-05-05 17:05 53.51181 10.28476 9919 ft 289 kts 167°
2026-05-05 17:05 53.49240 10.29359 9916 ft 289 kts 167°
2026-05-05 17:05 53.47322 10.30232 9916 ft 289 kts 167°
2026-05-05 17:05 53.45381 10.31119 9915 ft 289 kts 167°
2026-05-05 17:06 53.43423 10.32010 9922 ft 300 kts 167°
2026-05-05 17:06 53.41329 10.32949 10221 ft 324 kts 167°
2026-05-05 17:06 53.39060 10.33960 10463 ft 348 kts 167°
2026-05-05 17:06 53.36641 10.35039 10646 ft 371 kts 167°
2026-05-05 17:07 53.34076 10.36184 10828 ft 391 kts 167°
2026-05-05 17:07 53.31419 10.37379 11362 ft 398 kts 166°
2026-05-05 17:07 53.28730 10.38591 11992 ft 403 kts 166°
2026-05-05 17:07 53.26010 10.39813 12620 ft 406 kts 167°
2026-05-05 17:08 53.23264 10.41045 13243 ft 410 kts 166°
2026-05-05 17:08 53.20488 10.42292 13833 ft 414 kts 167°
2026-05-05 17:08 53.17697 10.43540 14389 ft 417 kts 166°
2026-05-05 17:08 53.14889 10.44794 14788 ft 419 kts 167°
2026-05-05 17:09 53.12052 10.46025 14919 ft 425 kts 168°
2026-05-05 17:09 53.09175 10.47080 15290 ft 430 kts 170°
2026-05-05 17:09 53.06225 10.48006 15811 ft 433 kts 171°
2026-05-05 17:09 53.03247 10.48859 16310 ft 435 kts 172°
2026-05-05 17:10 53.00244 10.49699 16770 ft 439 kts 172°
2026-05-05 17:10 52.97229 10.50559 17273 ft 441 kts 172°
2026-05-05 17:10 52.94201 10.51456 17723 ft 444 kts 171°
2026-05-05 17:10 52.91151 10.52390 18169 ft 447 kts 171°
2026-05-05 17:11 52.88081 10.53350 18552 ft 449 kts 171°
2026-05-05 17:11 52.85034 10.54309 18940 ft 451 kts 171°
2026-05-05 17:11 52.81943 10.55279 19320 ft 453 kts 171°
2026-05-05 17:11 52.78840 10.56244 19696 ft 455 kts 171°
2026-05-05 17:12 52.75720 10.57206 20061 ft 456 kts 171°
2026-05-05 17:12 52.73609 10.57854 20309 ft 457 kts 171°
2026-05-05 17:12 52.70480 10.58812 20651 ft 459 kts 171°
2026-05-05 17:12 52.67370 10.59765 20952 ft 461 kts 171°
2026-05-05 17:13 52.64208 10.60734 21284 ft 462 kts 171°
2026-05-05 17:13 52.61040 10.61700 21597 ft 464 kts 171°
2026-05-05 17:13 52.57861 10.62668 21923 ft 466 kts 172°
2026-05-05 17:13 52.54670 10.63641 22234 ft 467 kts 172°
2026-05-05 17:14 52.51464 10.64613 22553 ft 468 kts 172°
2026-05-05 17:14 52.48271 10.65581 23009 ft 466 kts 172°
2026-05-05 17:14 52.45086 10.66546 23476 ft 464 kts 172°
2026-05-05 17:14 52.41913 10.67507 23864 ft 462 kts 172°
2026-05-05 17:15 52.38754 10.68462 24247 ft 461 kts 172°
2026-05-05 17:15 52.35603 10.69414 24641 ft 460 kts 172°
2026-05-05 17:15 52.32459 10.70362 25024 ft 458 kts 172°
2026-05-05 17:15 52.29323 10.71308 25419 ft 457 kts 172°
2026-05-05 17:16 52.26203 10.72248 25829 ft 455 kts 172°
2026-05-05 17:16 52.23128 10.73170 26296 ft 453 kts 173°
2026-05-05 17:16 52.20037 10.74093 26737 ft 451 kts 173°
2026-05-05 17:16 52.16957 10.75009 27176 ft 449 kts 173°
2026-05-05 17:17 52.13884 10.75926 27618 ft 448 kts 173°
2026-05-05 17:17 52.10813 10.76842 28061 ft 447 kts 173°
2026-05-05 17:17 52.07757 10.77753 28502 ft 445 kts 173°
2026-05-05 17:17 52.04711 10.78659 28955 ft 444 kts 173°
2026-05-05 17:18 52.01679 10.79560 29386 ft 442 kts 173°
2026-05-05 17:18 51.98659 10.80457 29884 ft 440 kts 173°
2026-05-05 17:18 51.95653 10.81350 30263 ft 438 kts 173°
2026-05-05 17:18 51.92656 10.82238 30649 ft 437 kts 173°
2026-05-05 17:19 51.89707 10.83109 31032 ft 435 kts 174°
2026-05-05 17:19 51.86734 10.83984 31438 ft 433 kts 174°
2026-05-05 17:19 51.83772 10.84855 31830 ft 432 kts 174°
2026-05-05 17:19 51.80790 10.85734 32213 ft 430 kts 174°
2026-05-05 17:20 51.77883 10.86586 32579 ft 429 kts 173°
2026-05-05 17:20 51.74957 10.87444 33010 ft 426 kts 173°
2026-05-05 17:20 51.72072 10.88521 33422 ft 427 kts 166°
2026-05-05 17:20 51.69302 10.90302 33813 ft 431 kts 158°
2026-05-05 17:21 51.66722 10.92799 34132 ft 436 kts 149°
2026-05-05 17:21 51.64393 10.95987 34413 ft 442 kts 140°
2026-05-05 17:21 51.62372 10.99769 34677 ft 447 kts 133°
2026-05-05 17:22 51.58512 11.07633 35181 ft 448 kts 134°
2026-05-05 17:22 51.56570 11.11552 35431 ft 448 kts 134°
2026-05-05 17:22 51.54625 11.15464 35645 ft 449 kts 134°
2026-05-05 17:22 51.52672 11.19389 35849 ft 450 kts 134°
2026-05-05 17:23 51.50708 11.23329 36070 ft 451 kts 134°
2026-05-05 17:23 51.48753 11.27240 36353 ft 449 kts 134°
2026-05-05 17:23 51.46796 11.31156 36632 ft 448 kts 134°
2026-05-05 17:23 51.44846 11.35056 36840 ft 449 kts 134°
2026-05-05 17:24 51.42743 11.38714 36836 ft 442 kts 143°
2026-05-05 17:24 51.37629 11.43859 36837 ft 428 kts 163°
2026-05-05 17:25 51.31928 11.45868 36825 ft 418 kts 180°
2026-05-05 17:25 51.26143 11.46414 36829 ft 419 kts 180°
2026-05-05 17:26 51.20319 11.46993 36832 ft 419 kts 179°
2026-05-05 17:26 51.14505 11.47563 36801 ft 418 kts 180°
2026-05-05 17:27 51.08683 11.48120 36799 ft 418 kts 180°
2026-05-05 17:27 51.02897 11.48670 36801 ft 418 kts 180°
2026-05-05 17:28 50.97084 11.49227 36798 ft 418 kts 179°
2026-05-05 17:28 50.91275 11.49783 36799 ft 418 kts 179°
2026-05-05 17:29 50.85489 11.50335 36794 ft 418 kts 179°
2026-05-05 17:29 50.79686 11.50880 36785 ft 418 kts 180°
2026-05-05 17:30 50.73879 11.51422 36774 ft 418 kts 179°
2026-05-05 17:30 50.68064 11.51984 36779 ft 418 kts 179°
2026-05-05 17:31 50.62270 11.52535 36775 ft 418 kts 179°
2026-05-05 17:31 50.56448 11.53070 36772 ft 418 kts 179°
2026-05-05 17:32 50.50729 11.53954 36770 ft 416 kts 175°
2026-05-05 17:32 50.44987 11.55246 36756 ft 418 kts 174°
2026-05-05 17:33 50.39231 11.56548 36758 ft 418 kts 175°
2026-05-05 17:33 50.33450 11.57753 36757 ft 419 kts 175°
2026-05-05 17:34 50.27664 11.58919 36735 ft 419 kts 175°
2026-05-05 17:34 50.21876 11.60091 36746 ft 420 kts 175°
2026-05-05 17:35 50.16065 11.61267 36758 ft 421 kts 175°
2026-05-05 17:35 50.10247 11.62451 36759 ft 422 kts 175°
2026-05-05 17:36 50.04418 11.62729 36732 ft 418 kts 186°
2026-05-05 17:36 49.98590 11.62025 36737 ft 421 kts 187°
2026-05-05 17:37 49.92942 11.59809 36739 ft 419 kts 204°
2026-05-05 17:37 49.87609 11.56106 36747 ft 420 kts 204°
2026-05-05 17:38 49.82276 11.52428 36761 ft 421 kts 204°
2026-05-05 17:38 49.76959 11.48734 36764 ft 422 kts 205°
2026-05-05 17:39 49.71890 11.44244 36420 ft 422 kts 222°
2026-05-05 17:39 49.69972 11.40810 36170 ft 424 kts 236°
2026-05-05 17:39 49.68634 11.36741 35728 ft 429 kts 248°
2026-05-05 17:39 49.67965 11.32201 34764 ft 441 kts 263°
2026-05-05 17:40 49.68100 11.27412 33744 ft 454 kts 275°
2026-05-05 17:40 49.68611 11.22557 32622 ft 461 kts 276°
2026-05-05 17:40 49.69118 11.17638 31569 ft 465 kts 276°
2026-05-05 17:40 49.69617 11.12682 30518 ft 470 kts 275°
2026-05-05 17:41 49.70109 11.07671 29357 ft 475 kts 275°
2026-05-05 17:41 49.70597 11.02604 28138 ft 478 kts 275°
2026-05-05 17:41 49.71094 10.97425 26863 ft 482 kts 276°
2026-05-05 17:41 49.71602 10.92355 25590 ft 487 kts 279°
2026-05-05 17:42 49.72740 10.87371 24340 ft 496 kts 296°
2026-05-05 17:42 49.74724 10.83263 23373 ft 498 kts 314°
2026-05-05 17:42 49.77190 10.79576 22492 ft 488 kts 310°
2026-05-05 17:42 49.78965 10.75230 21787 ft 472 kts 289°
2026-05-05 17:43 49.79566 10.70410 21629 ft 444 kts 267°
2026-05-05 17:43 49.79042 10.65931 21527 ft 418 kts 245°
2026-05-05 17:43 49.78630 10.63390 19934 ft 375 kts 255°